This demonstration page uses our WeatherBlox Daily Observations layout. Learn more.

Left ArrowRight Arrow

34.16533, -84.80231

Hourly Observations for July 28, 2020

Temp ( °F °C ) Dew Point ( °F °C ) Humidity (%) Winds ( mph kmh ) Pressure ( in mb ) Visibility ( mi km ) Precip ( " mm )
12:53 am 00:53 Clear 74 23.3 71 21.7 91 91 Calm 30.01 1016 10 16 0.00 0.00
1:53 am 01:53 Clear 72 22.2 70 21.1 94 94 Calm 29.99 1016 10 16 0.00 0.00
2:53 am 02:53 Clear 72 22.2 70 21.1 94 94 Calm 29.98 1015 10 16 0.00 0.00
3:53 am 03:53 Clear 72 22.2 69 20.6 91 91 Calm 29.97 1015 10 16 0.00 0.00
4:53 am 04:53 Clear 71 21.7 68 20 90 90 Calm 29.98 1015 9 14 0.00 0.00
5:53 am 05:53 Clear 72 22.2 69 20.6 91 91 Calm 29.99 1016 9 14 0.00 0.00
6:53 am 06:53 Sunny 71 21.7 68 20 90 90 Calm 30.01 1016 9 14 0.00 0.00
7:53 am 07:53 Sunny 74 23.3 71 21.7 91 91 Calm 30.02 1017 10 16 0.00 0.00
8:53 am 08:53 Sunny 78 25.6 72 22.2 82 82 VRB 5 7 30.04 1017 10 16 0.00 0.00
9:53 am 09:53 Sunny 81 27.2 73 22.8 77 77 Calm 30.03 1017 10 16 0.00 0.00
10:53 am 10:53 Sunny 85 29.4 74 23.3 70 70 N 3 6 30.04 1017 10 16 0.00 0.00
11:53 am 11:53 Mostly Sunny 87 30.6 73 22.8 63 63 NE 3 6 30.02 1017 10 16 0.00 0.00
12:53 pm 12:53 Partly Cloudy 89 31.7 70 21.1 53 53 Calm 30.01 1016 10 16 0.00 0.00
1:53 pm 13:53 Partly Cloudy 90 32.2 72 22.2 56 56 Calm 29.98 1015 10 16 0.00 0.00
2:53 pm 14:53 Mostly Sunny 90 32.2 72 22.2 56 56 VRB 7 11 29.96 1015 10 16 0.00 0.00
3:34 pm 15:34 Sunny with Thunderstorms 90 32.2 73 22.8 58 58 S 13 20 29.95 1014 10 16 0.00 0.00
3:53 pm 15:53 Sunny with Thunderstorms 88 31.1 72 22.2 59 59 S 9 15 29.97 1015 10 16 0.00 0.00
4:38 pm 16:38 Cloudy with Nearby Thunderstorms 79 26.1 72 22.2 79 79 VRB 6 9 29.97 1015 10 16 0.05 1.27
4:53 pm 16:53 Mostly Cloudy 83 28.3 72 22.2 70 70 VRB 5 7 29.96 1015 10 16 0.05 1.27
5:53 pm 17:53 Sunny 87 30.6 71 21.7 59 59 S 5 7 29.95 1014 10 16 0.00 0.00
6:53 pm 18:53 Mostly Sunny 86 30 72 22.2 63 63 Calm 29.94 1014 10 16 0.00 0.00
8:53 pm 20:53 Clear 82 27.8 73 22.8 74 74 Calm 29.97 1015 10 16 0.00 0.00
9:53 pm 21:53 Mostly Cloudy 80 26.7 73 22.8 79 79 Calm 29.99 1016 10 16 0.00 0.00
10:53 pm 22:53 Clear 79 26.1 72 22.2 79 79 Calm 29.99 1016 10 16 0.00 0.00
11:53 pm 23:53 Mostly Clear 78 25.6 72 22.2 82 82 Calm 29.99 1016 10 16 0.00 0.00

Powered by AerisWeather